| time (UTC) | temp C | wind direction | speed KPH | gust KPH | rain 1hr cm | rain 24hr cm | rain mn cm | humidity % | barometer mb |
| 20260508054603 | 21 | 205 | 6.4 | 14.5 | 0.00 | 0.00 | 0.00 | 41 | 1015.6 |
| 20260508054055 | 21 | 229 | 4.8 | 14.5 | 0.00 | 0.00 | 0.00 | 41 | 1015.5 |
| 20260508053555 | 21 | 203 | 6.4 | 16.1 | 0.00 | 0.00 | 0.00 | 41 | 1015.6 |
| 20260508053056 | 21 | 207 | 6.4 | 16.1 | 0.00 | 0.00 | 0.00 | 41 | 1015.5 |
| 20260508052554 | 21 | 227 | 3.2 | 14.5 | 0.00 | 0.00 | 0.00 | 41 | 1015.4 |
| 20260508052056 | 21 | 235 | 4.8 | 19.3 | 0.00 | 0.00 | 0.00 | 40 | 1015.4 |
| 20260508051555 | 21 | 169 | 9.7 | 19.3 | 0.00 | 0.00 | 0.00 | 40 | 1015.4 |
| 20260508051054 | 21 | 233 | 8.0 | 19.3 | 0.00 | 0.00 | 0.00 | 39 | 1015.4 |
| 20260508050555 | 21 | 230 | 8.0 | 16.1 | 0.00 | 0.00 | 0.00 | 39 | 1015.3 |
| 20260508050054 | 21 | 202 | 6.4 | 14.5 | 0.00 | 0.00 | 0.00 | 40 | 1015.3 |
| 20260508045553 | 21 | 232 | 6.4 | 22.5 | 0.00 | 0.00 | 0.00 | 40 | 1015.3 |
| 20260508045055 | 21 | 202 | 9.7 | 22.5 | 0.00 | 0.00 | 0.00 | 39 | 1015.3 |
| 20260508044553 | 21 | 258 | 6.4 | 22.5 | 0.00 | 0.00 | 0.00 | 39 | 1015.2 |
| 20260508044054 | 21 | 210 | 9.7 | 20.9 | 0.00 | 0.00 | 0.00 | 39 | 1015.1 |
| 20260508043553 | 21 | 171 | 6.4 | 16.1 | 0.00 | 0.00 | 0.00 | 39 | 1015.2 |
| 20260508043100 | 21 | 270 | 6.4 | 22.5 | 0.00 | 0.00 | 0.00 | 39 | 1015.2 |
| 20260508042552 | 21 | 225 | 9.7 | 20.9 | 0.00 | 0.00 | 0.00 | 40 | 1015.2 |
| 20260508042057 | 21 | 194 | 6.4 | 17.7 | 0.00 | 0.00 | 0.00 | 41 | 1015.1 |
| 20260508041556 | 21 | 182 | 6.4 | 19.3 | 0.00 | 0.00 | 0.00 | 41 | 1015.2 |
| 20260508041051 | 21 | 161 | 6.4 | 19.3 | 0.00 | 0.00 | 0.00 | 40 | 1015.1 |
| 20260508040549 | 21 | 184 | 6.4 | 17.7 | 0.00 | 0.00 | 0.00 | 40 | 1015.2 |
| 20260508040048 | 21 | 227 | 6.4 | 17.7 | 0.00 | 0.00 | 0.00 | 40 | 1015.3 |
| 20260508035547 | 21 | 227 | 6.4 | 17.7 | 0.00 | 0.00 | 0.00 | 40 | 1015.3 |
| 20260508035046 | 20 | 191 | 3.2 | 19.3 | 0.00 | 0.00 | 0.00 | 41 | 1015.4 |
| 20260508034549 | 20 | 175 | 8.0 | 19.3 | 0.00 | 0.00 | 0.00 | 42 | 1015.4 |
| 20260508034043 | 20 | 239 | 6.4 | 16.1 | 0.00 | 0.00 | 0.00 | 43 | 1015.4 |
| 20260508033541 | 20 | 251 | 8.0 | 16.1 | 0.00 | 0.00 | 0.00 | 46 | 1015.5 |
| 20260508033040 | 19 | 242 | 6.4 | 19.3 | 0.00 | 0.00 | 0.00 | 46 | 1015.5 |
| 20260508032544 | 19 | 258 | 8.0 | 19.3 | 0.00 | 0.00 | 0.00 | 46 | 1015.5 |
| 20260508032044 | 19 | 248 | 8.0 | 19.3 | 0.00 | 0.00 | 0.00 | 46 | 1015.6 |
| 20260508031538 | 19 | 288 | 4.8 | 16.1 | 0.00 | 0.00 | 0.00 | 46 | 1015.6 |
| 20260508031036 | 19 | 317 | 6.4 | 17.7 | 0.00 | 0.00 | 0.00 | 47 | 1015.7 |
| 20260508030536 | 19 | 271 | 9.7 | 20.9 | 0.00 | 0.00 | 0.00 | 47 | 1015.6 |
| 20260508030036 | 18 | 267 | 11.3 | 19.3 | 0.00 | 0.00 | 0.00 | 47 | 1015.7 |
| 20260508025537 | 18 | 248 | 8.0 | 17.7 | 0.00 | 0.00 | 0.00 | 47 | 1015.7 |
| 20260508025033 | 18 | 290 | 9.7 | 17.7 | 0.00 | 0.00 | 0.00 | 47 | 1015.7 |
| 20260508024543 | 18 | 275 | 11.3 | 22.5 | 0.00 | 0.00 | 0.00 | 48 | 1015.9 |
| 20260508024031 | 18 | 248 | 9.7 | 24.1 | 0.00 | 0.00 | 0.00 | 49 | 1016.0 |
| 20260508023529 | 18 | 279 | 9.7 | 24.1 | 0.00 | 0.00 | 0.00 | 49 | 1016.1 |
| 20260508023030 | 18 | 284 | 12.9 | 27.4 | 0.00 | 0.00 | 0.00 | 49 | 1016.2 |
| 20260508022527 | 18 | 274 | 9.7 | 27.4 | 0.00 | 0.00 | 0.00 | 50 | 1016.3 |
| 20260508022027 | 18 | 222 | 9.7 | 24.1 | 0.00 | 0.00 | 0.00 | 50 | 1016.2 |
| 20260508021526 | 17 | 329 | 11.3 | 22.5 | 0.00 | 0.00 | 0.00 | 49 | 1016.4 |
| 20260508021025 | 17 | 216 | 12.9 | 22.5 | 0.00 | 0.00 | 0.00 | 49 | 1016.4 |
| 20260508020524 | 17 | 282 | 8.0 | 22.5 | 0.00 | 0.00 | 0.00 | 50 | 1016.7 |
| 20260508020023 | 17 | 288 | 11.3 | 22.5 | 0.00 | 0.00 | 0.00 | 49 | 1016.8 |
| 20260508015523 | 17 | 243 | 9.7 | 20.9 | 0.00 | 0.00 | 0.00 | 50 | 1016.9 |
| 20260508015021 | 17 | 246 | 8.0 | 22.5 | 0.00 | 0.00 | 0.00 | 51 | 1017.0 |
| 20260508014540 | 17 | 273 | 9.7 | 22.5 | 0.00 | 0.00 | 0.00 | 51 | 1017.1 |
| 20260508014020 | 17 | 236 | 9.7 | 22.5 | 0.00 | 0.00 | 0.00 | 51 | 1017.2 |
| 20260508013518 | 17 | 229 | 8.0 | 22.5 | 0.00 | 0.00 | 0.00 | 53 | 1017.2 |
| 20260508013018 | 16 | 252 | 12.9 | 22.5 | 0.00 | 0.00 | 0.00 | 51 | 1017.3 |
| 20260508012518 | 16 | 293 | 8.0 | 24.1 | 0.00 | 0.00 | 0.00 | 53 | 1017.4 |
| 20260508012016 | 16 | 248 | 12.9 | 24.1 | 0.00 | 0.00 | 0.00 | 52 | 1017.4 |
| 20260508011518 | 16 | 246 | 6.4 | 20.9 | 0.00 | 0.00 | 0.00 | 54 | 1017.4 |
| 20260508011013 | 16 | 242 | 11.3 | 24.1 | 0.00 | 0.00 | 0.00 | 53 | 1017.6 |
| 20260508010513 | 15 | 274 | 14.5 | 25.7 | 0.00 | 0.00 | 0.00 | 54 | 1017.6 |
| 20260508010021 | 15 | 254 | 12.9 | 25.7 | 0.00 | 0.00 | 0.00 | 54 | 1017.6 |
| 20260508005517 | 15 | 273 | 12.9 | 25.7 | 0.00 | 0.00 | 0.00 | 54 | 1017.6 |
| 20260508005010 | 15 | 299 | 12.9 | 25.7 | 0.00 | 0.00 | 0.00 | 54 | 1017.7 |
| 20260508004516 | 15 | 267 | 9.7 | 24.1 | 0.00 | 0.00 | 0.00 | 55 | 1017.7 |
| 20260508004008 | 15 | 300 | 9.7 | 29.0 | 0.00 | 0.00 | 0.00 | 55 | 1017.9 |
| 20260508003507 | 15 | 257 | 12.9 | 29.0 | 0.00 | 0.00 | 0.00 | 55 | 1017.9 |
| 20260508003025 | 15 | 248 | 9.7 | 20.9 | 0.00 | 0.00 | 0.00 | 56 | 1018.0 |
| 20260508002505 | 15 | 242 | 9.7 | 19.3 | 0.00 | 0.00 | 0.00 | 56 | 1017.9 |
| 20260508002008 | 14 | 223 | 8.0 | 19.3 | 0.00 | 0.00 | 0.00 | 57 | 1018.1 |
| 20260508001502 | 14 | 271 | 9.7 | 16.1 | 0.00 | 0.00 | 0.00 | 58 | 1018.1 |
| 20260508001001 | 13 | 265 | 9.7 | 20.9 | 0.00 | 0.00 | 0.00 | 58 | 1018.2 |
| 20260508000500 | 13 | 248 | 12.9 | 20.9 | 0.00 | 0.00 | 0.00 | 58 | 1018.2 |
| 20260507235602 | 13 | 245 | 11.3 | 32.2 | 0.00 | 0.00 | 0.00 | 59 | 1018.3 |
| 20260507235057 | 13 | 288 | 11.3 | 24.1 | 0.00 | 0.00 | 0.00 | 59 | 1018.3 |
| 20260507234556 | 12 | 240 | 12.9 | 22.5 | 0.00 | 0.00 | 0.00 | 59 | 1018.3 |
| 20260507234053 | 12 | 269 | 11.3 | 22.5 | 0.00 | 0.00 | 0.00 | 60 | 1018.3 |
| 20260507233552 | 12 | 234 | 12.9 | 27.4 | 0.00 | 0.00 | 0.00 | 60 | 1018.3 |
| 20260507233051 | 12 | 258 | 14.5 | 27.4 | 0.00 | 0.00 | 0.00 | 61 | 1018.2 |
| 20260507232549 | 12 | 255 | 12.9 | 24.1 | 0.00 | 0.00 | 0.00 | 61 | 1018.2 |
| 20260507232049 | 12 | 301 | 14.5 | 24.1 | 0.00 | 0.00 | 0.00 | 62 | 1018.3 |
| 20260507231546 | 11 | 267 | 11.3 | 24.1 | 0.00 | 0.00 | 0.00 | 62 | 1018.5 |
| 20260507231045 | 11 | 272 | 11.3 | 24.1 | 0.00 | 0.00 | 0.00 | 62 | 1018.4 |
| 20260507230543 | 11 | 251 | 11.3 | 24.1 | 0.00 | 0.00 | 0.00 | 63 | 1018.5 |
| 20260507230043 | 11 | 265 | 8.0 | 20.9 | 0.00 | 0.00 | 0.00 | 64 | 1018.5 |
| 20260507225541 | 11 | 279 | 9.7 | 19.3 | 0.00 | 0.00 | 0.00 | 64 | 1018.5 |
| 20260507225041 | 10 | 209 | 11.3 | 20.9 | 0.00 | 0.00 | 0.00 | 64 | 1018.5 |
| 20260507224558 | 10 | 279 | 11.3 | 25.7 | 0.00 | 0.00 | 0.00 | 64 | 1018.5 |
| 20260507224039 | 10 | 265 | 16.1 | 29.0 | 0.00 | 0.00 | 0.00 | 64 | 1018.5 |
| 20260507223537 | 10 | 239 | 16.1 | 29.0 | 0.00 | 0.00 | 0.00 | 64 | 1018.6 |
| 20260507223041 | 10 | 270 | 12.9 | 24.1 | 0.00 | 0.00 | 0.00 | 65 | 1018.6 |
| 20260507222536 | 10 | 282 | 11.3 | 20.9 | 0.00 | 0.00 | 0.00 | 66 | 1018.6 |
| 20260507222035 | 10 | 296 | 11.3 | 27.4 | 0.00 | 0.00 | 0.00 | 66 | 1018.7 |
| 20260507221534 | 9 | 262 | 14.5 | 27.4 | 0.00 | 0.00 | 0.00 | 66 | 1018.6 |
| 20260507221035 | 9 | 246 | 9.7 | 20.9 | 0.00 | 0.00 | 0.00 | 67 | 1018.6 |
| 20260507220537 | 8 | 246 | 12.9 | 20.9 | 0.00 | 0.00 | 0.00 | 67 | 1018.6 |
| 20260507220033 | 8 | 264 | 11.3 | 20.9 | 0.00 | 0.00 | 0.00 | 67 | 1018.6 |
| 20260507215533 | 8 | 252 | 11.3 | 20.9 | 0.00 | 0.00 | 0.00 | 68 | 1018.5 |
| 20260507215034 | 8 | 278 | 9.7 | 20.9 | 0.00 | 0.00 | 0.00 | 68 | 1018.4 |
| 20260507214531 | 8 | 277 | 11.3 | 20.9 | 0.00 | 0.00 | 0.00 | 68 | 1018.4 |
| 20260507214031 | 8 | 261 | 9.7 | 20.9 | 0.00 | 0.00 | 0.00 | 68 | 1018.5 |
| 20260507213533 | 8 | 232 | 9.7 | 22.5 | 0.00 | 0.00 | 0.00 | 68 | 1018.3 |
| 20260507213031 | 8 | 241 | 11.3 | 22.5 | 0.00 | 0.00 | 0.00 | 69 | 1018.4 |
| 20260507212529 | 8 | 275 | 9.7 | 20.9 | 0.00 | 0.00 | 0.00 | 69 | 1018.2 |
| 20260507212030 | 8 | 248 | 12.9 | 27.4 | 0.00 | 0.00 | 0.00 | 69 | 1018.2 |
| 20260507211529 | 8 | 317 | 11.3 | 22.5 | 0.00 | 0.00 | 0.00 | 69 | 1018.2 |
| 20260507211028 | 8 | 269 | 9.7 | 20.9 | 0.00 | 0.00 | 0.00 | 69 | 1018.2 |
| 20260507210530 | 7 | 271 | 9.7 | 22.5 | 0.00 | 0.00 | 0.00 | 69 | 1018.2 |
| 20260507210032 | 7 | 244 | 11.3 | 22.5 | 0.00 | 0.00 | 0.00 | 69 | 1018.3 |
| 20260507205528 | 7 | 239 | 11.3 | 20.9 | 0.00 | 0.00 | 0.00 | 69 | 1018.2 |
| 20260507205030 | 7 | 279 | 9.7 | 16.1 | 0.00 | 0.00 | 0.00 | 69 | 1018.3 |
| 20260507204526 | 7 | 284 | 6.4 | 16.1 | 0.00 | 0.00 | 0.00 | 69 | 1018.4 |
| 20260507204026 | 7 | 277 | 8.0 | 16.1 | 0.00 | 0.00 | 0.00 | 69 | 1018.4 |
| 20260507203525 | 7 | 280 | 6.4 | 14.5 | 0.00 | 0.00 | 0.00 | 68 | 1018.2 |
| 20260507203024 | 7 | 288 | 8.0 | 16.1 | 0.00 | 0.00 | 0.00 | 68 | 1018.2 |
| 20260507202523 | 7 | 276 | 8.0 | 16.1 | 0.00 | 0.00 | 0.00 | 68 | 1018.4 |
| 20260507202024 | 8 | 271 | 6.4 | 17.7 | 0.00 | 0.00 | 0.00 | 67 | 1018.4 |
| 20260507201526 | 8 | 265 | 6.4 | 19.3 | 0.00 | 0.00 | 0.00 | 67 | 1018.4 |
| 20260507201021 | 8 | 244 | 11.3 | 19.3 | 0.00 | 0.00 | 0.00 | 66 | 1018.4 |
| 20260507200519 | 8 | 250 | 9.7 | 16.1 | 0.00 | 0.00 | 0.00 | 66 | 1018.3 |
| 20260507200019 | 8 | 252 | 9.7 | 20.9 | 0.00 | 0.00 | 0.00 | 66 | 1018.2 |
| 20260507195618 | 8 | 212 | 11.3 | 20.9 | 0.00 | 0.00 | 0.00 | 65 | 1018.1 |
| 20260507195017 | 8 | 243 | 11.3 | 20.9 | 0.00 | 0.00 | 0.00 | 65 | 1018.1 |
| 20260507194517 | 8 | 281 | 9.7 | 19.3 | 0.00 | 0.00 | 0.00 | 65 | 1018.1 |
| 20260507194016 | 8 | 284 | 11.3 | 19.3 | 0.00 | 0.00 | 0.00 | 65 | 1018.1 |
| 20260507193516 | 8 | 269 | 11.3 | 22.5 | 0.00 | 0.00 | 0.00 | 64 | 1018.0 |
| 20260507193014 | 8 | 275 | 8.0 | 22.5 | 0.00 | 0.00 | 0.00 | 64 | 1018.0 |
| 20260507192515 | 8 | 264 | 11.3 | 20.9 | 0.00 | 0.00 | 0.00 | 64 | 1017.9 |
| 20260507192016 | 8 | 279 | 9.7 | 20.9 | 0.00 | 0.00 | 0.00 | 64 | 1017.8 |
| 20260507191514 | 8 | 283 | 9.7 | 24.1 | 0.00 | 0.00 | 0.00 | 64 | 1017.8 |
| 20260507191013 | 8 | 275 | 11.3 | 20.9 | 0.00 | 0.00 | 0.00 | 63 | 1017.9 |
| 20260507190512 | 8 | 294 | 9.7 | 20.9 | 0.00 | 0.00 | 0.00 | 64 | 1017.7 |
| 20260507190011 | 8 | 271 | 8.0 | 17.7 | 0.00 | 0.00 | 0.00 | 63 | 1017.7 |
| 20260507185510 | 8 | 264 | 9.7 | 17.7 | 0.00 | 0.00 | 0.00 | 63 | 1017.7 |
| 20260507185009 | 8 | 271 | 8.0 | 17.7 | 0.00 | 0.00 | 0.00 | 63 | 1017.8 |
| 20260507184512 | 8 | 286 | 9.7 | 22.5 | 0.00 | 0.00 | 0.00 | 63 | 1017.9 |
| 20260507184007 | 8 | 294 | 11.3 | 22.5 | 0.00 | 0.00 | 0.00 | 63 | 1017.9 |
| 20260507183506 | 8 | 286 | 9.7 | 19.3 | 0.00 | 0.00 | 0.00 | 63 | 1017.8 |
| 20260507183007 | 8 | 306 | 11.3 | 19.3 | 0.00 | 0.00 | 0.00 | 63 | 1017.8 |
| 20260507182506 | 8 | 286 | 9.7 | 19.3 | 0.00 | 0.00 | 0.00 | 63 | 1017.9 |
| 20260507182006 | 8 | 241 | 8.0 | 17.7 | 0.00 | 0.00 | 0.00 | 63 | 1017.9 |
| 20260507181506 | 8 | 278 | 8.0 | 16.1 | 0.00 | 0.00 | 0.00 | 63 | 1017.9 |
| 20260507181004 | 8 | 281 | 8.0 | 16.1 | 0.00 | 0.00 | 0.00 | 63 | 1017.9 |
| 20260507180504 | 8 | 271 | 9.7 | 16.1 | 0.00 | 0.00 | 0.00 | 63 | 1018.0 |
| 20260507180007 | 8 | 249 | 8.0 | 14.5 | 0.00 | 0.00 | 0.00 | 63 | 1017.9 |
| 20260507175501 | 8 | 263 | 8.0 | 14.5 | 0.00 | 0.00 | 0.00 | 63 | 1017.9 |
| 20260507175100 | 8 | 259 | 6.4 | 19.3 | 0.00 | 0.00 | 0.00 | 62 | 1017.8 |
| 20260507174600 | 8 | 270 | 6.4 | 19.3 | 0.00 | 0.00 | 0.00 | 62 | 1017.8 |
| 20260507174501 | 8 | 259 | 8.0 | 19.3 | 0.00 | 0.00 | 0.00 | 62 | 1017.8 |
| 20260507174059 | 8 | 316 | 6.4 | 19.3 | 0.00 | 0.00 | 0.00 | 61 | 1017.9 |
| 20260507173557 | 8 | 267 | 6.4 | 12.9 | 0.00 | 0.00 | 0.00 | 61 | 1017.9 |
| 20260507173100 | 8 | 278 | 4.8 | 11.3 | 0.00 | 0.00 | 0.00 | 61 | 1017.9 |
| 20260507172555 | 9 | 274 | 3.2 | 12.9 | 0.00 | 0.00 | 0.00 | 60 | 1018.0 |
| 20260507172054 | 9 | 285 | 6.4 | 12.9 | 0.00 | 0.00 | 0.00 | 60 | 1018.1 |
| 20260507171557 | 9 | 288 | 6.4 | 12.9 | 0.00 | 0.00 | 0.00 | 59 | 1018.1 |
| 20260507171052 | 9 | 269 | 6.4 | 12.9 | 0.00 | 0.00 | 0.00 | 59 | 1018.1 |
| 20260507170552 | 9 | 279 | 6.4 | 12.9 | 0.00 | 0.00 | 0.00 | 59 | 1018.2 |
| 20260507170051 | 9 | 295 | 6.4 | 12.9 | 0.00 | 0.00 | 0.00 | 59 | 1018.2 |
| 20260507165550 | 9 | 257 | 6.4 | 12.9 | 0.00 | 0.00 | 0.00 | 59 | 1018.2 |
| 20260507165053 | 9 | 292 | 4.8 | 11.3 | 0.00 | 0.00 | 0.00 | 59 | 1018.2 |
| 20260507164548 | 9 | 281 | 4.8 | 11.3 | 0.00 | 0.00 | 0.00 | 58 | 1018.3 |
| 20260507164048 | 9 | 288 | 4.8 | 14.5 | 0.00 | 0.00 | 0.00 | 57 | 1018.3 |
| 20260507163549 | 9 | 273 | 4.8 | 12.9 | 0.00 | 0.00 | 0.00 | 57 | 1018.4 |
| 20260507163046 | 9 | 265 | 6.4 | 16.1 | 0.00 | 0.00 | 0.00 | 57 | 1018.4 |
| 20260507162546 | 10 | 298 | 6.4 | 16.1 | 0.00 | 0.00 | 0.00 | 57 | 1018.3 |
| 20260507162044 | 10 | 243 | 6.4 | 12.9 | 0.00 | 0.00 | 0.00 | 56 | 1018.4 |
| 20260507161543 | 10 | 254 | 4.8 | 11.3 | 0.00 | 0.00 | 0.00 | 56 | 1018.4 |
| 20260507161042 | 10 | 289 | 4.8 | 17.7 | 0.00 | 0.00 | 0.00 | 55 | 1018.3 |
| 20260507160541 | 10 | 282 | 4.8 | 17.7 | 0.00 | 0.00 | 0.00 | 56 | 1018.4 |
| 20260507160041 | 10 | 256 | 4.8 | 16.1 | 0.00 | 0.00 | 0.00 | 56 | 1018.4 |
| 20260507155539 | 10 | 251 | 6.4 | 14.5 | 0.00 | 0.00 | 0.00 | 55 | 1018.5 |
| 20260507155039 | 10 | 240 | 6.4 | 14.5 | 0.00 | 0.00 | 0.00 | 55 | 1018.5 |
| 20260507154538 | 10 | 217 | 4.8 | 14.5 | 0.00 | 0.00 | 0.00 | 55 | 1018.5 |
| 20260507154038 | 10 | 214 | 3.2 | 17.7 | 0.00 | 0.00 | 0.00 | 54 | 1018.5 |
| 20260507153537 | 10 | 247 | 4.8 | 17.7 | 0.00 | 0.00 | 0.00 | 54 | 1018.6 |
| 20260507153037 | 10 | 201 | 6.4 | 20.9 | 0.00 | 0.00 | 0.00 | 54 | 1018.6 |
| 20260507152536 | 10 | 236 | 6.4 | 16.1 | 0.00 | 0.00 | 0.00 | 54 | 1018.7 |
| 20260507152036 | 10 | 222 | 4.8 | 12.9 | 0.00 | 0.00 | 0.00 | 54 | 1018.7 |
| 20260507151534 | 10 | 214 | 6.4 | 14.5 | 0.00 | 0.00 | 0.00 | 54 | 1018.6 |
| 20260507151033 | 10 | 200 | 4.8 | 14.5 | 0.00 | 0.00 | 0.00 | 54 | 1018.7 |
| 20260507150533 | 11 | 146 | 4.8 | 17.7 | 0.00 | 0.00 | 0.00 | 53 | 1018.7 |
| 20260507150032 | 11 | 253 | 6.4 | 17.7 | 0.00 | 0.00 | 0.00 | 53 | 1018.7 |
| 20260507145532 | 11 | 260 | 6.4 | 14.5 | 0.00 | 0.00 | 0.00 | 53 | 1018.8 |
| 20260507145031 | 11 | 211 | 4.8 | 16.1 | 0.00 | 0.00 | 0.00 | 52 | 1018.8 |
| 20260507144534 | 11 | 277 | 6.4 | 17.7 | 0.00 | 0.00 | 0.00 | 52 | 1018.7 |
| 20260507144031 | 11 | 201 | 4.8 | 17.7 | 0.00 | 0.00 | 0.00 | 52 | 1018.8 |
| 20260507143529 | 11 | 204 | 3.2 | 19.3 | 0.00 | 0.00 | 0.00 | 53 | 1018.8 |
| 20260507143032 | 11 | 227 | 8.0 | 19.3 | 0.00 | 0.00 | 0.00 | 53 | 1018.8 |
| 20260507142529 | 11 | 267 | 4.8 | 12.9 | 0.00 | 0.00 | 0.00 | 53 | 1018.7 |
| 20260507142028 | 11 | 197 | 3.2 | 17.7 | 0.00 | 0.00 | 0.00 | 52 | 1018.8 |
| 20260507141528 | 11 | 242 | 6.4 | 17.7 | 0.00 | 0.00 | 0.00 | 52 | 1018.8 |
| 20260507141026 | 11 | 227 | 6.4 | 16.1 | 0.00 | 0.00 | 0.00 | 52 | 1018.8 |
| 20260507140525 | 11 | 260 | 6.4 | 16.1 | 0.00 | 0.00 | 0.00 | 52 | 1018.7 |
| 20260507140028 | 11 | 212 | 6.4 | 12.9 | 0.00 | 0.00 | 0.00 | 52 | 1018.8 |
| 20260507135523 | 11 | 294 | 4.8 | 22.5 | 0.00 | 0.00 | 0.00 | 52 | 1018.7 |
| 20260507135023 | 11 | 227 | 4.8 | 22.5 | 0.00 | 0.00 | 0.00 | 52 | 1018.7 |
| 20260507134525 | 11 | 186 | 9.7 | 22.5 | 0.00 | 0.00 | 0.00 | 51 | 1018.7 |
| 20260507134025 | 11 | 269 | 4.8 | 17.7 | 0.00 | 0.00 | 0.00 | 52 | 1018.7 |
| 20260507133525 | 11 | 186 | 6.4 | 22.5 | 0.00 | 0.00 | 0.00 | 52 | 1018.6 |
| 20260507133022 | 11 | 238 | 8.0 | 16.1 | 0.00 | 0.00 | 0.00 | 53 | 1018.6 |
| 20260507132520 | 11 | 230 | 4.8 | 16.1 | 0.00 | 0.00 | 0.00 | 52 | 1018.6 |
| 20260507132022 | 11 | 214 | 6.4 | 19.3 | 0.00 | 0.00 | 0.00 | 52 | 1018.7 |
| 20260507131527 | 11 | 215 | 6.4 | 20.9 | 0.00 | 0.00 | 0.00 | 51 | 1018.7 |
| 20260507131019 | 11 | 195 | 8.0 | 19.3 | 0.00 | 0.00 | 0.00 | 52 | 1018.8 |
| 20260507130518 | 11 | 253 | 3.2 | 19.3 | 0.00 | 0.00 | 0.00 | 52 | 1018.7 |
| 20260507130017 | 11 | 219 | 6.4 | 14.5 | 0.00 | 0.00 | 0.00 | 52 | 1018.6 |
| 20260507125517 | 11 | 241 | 4.8 | 19.3 | 0.00 | 0.00 | 0.00 | 52 | 1018.7 |
| 20260507125016 | 11 | 125 | 4.8 | 19.3 | 0.00 | 0.00 | 0.00 | 52 | 1018.5 |
| 20260507124518 | 11 | 217 | 3.2 | 12.9 | 0.00 | 0.00 | 0.00 | 52 | 1018.5 |
| 20260507124019 | 11 | 194 | 6.4 | 14.5 | 0.00 | 0.00 | 0.00 | 52 | 1018.5 |
| 20260507123519 | 11 | 172 | 6.4 | 16.1 | 0.00 | 0.00 | 0.00 | 51 | 1018.5 |
| 20260507123022 | 11 | 240 | 6.4 | 19.3 | 0.00 | 0.00 | 0.00 | 52 | 1018.6 |
| 20260507122517 | 11 | 221 | 4.8 | 29.0 | 0.00 | 0.00 | 0.00 | 51 | 1018.7 |
| 20260507122013 | 11 | 211 | 6.4 | 14.5 | 0.00 | 0.00 | 0.00 | 51 | 1018.7 |
| 20260507121513 | 11 | 246 | 6.4 | 16.1 | 0.00 | 0.00 | 0.00 | 51 | 1018.7 |
| 20260507121012 | 11 | 161 | 3.2 | 16.1 | 0.00 | 0.00 | 0.00 | 51 | 1018.8 |
| 20260507120511 | 11 | 215 | 6.4 | 32.2 | 0.00 | 0.00 | 0.00 | 50 | 1018.8 |
| 20260507120010 | 11 | 171 | 6.4 | 32.2 | 0.00 | 0.00 | 0.00 | 51 | 1019.0 |
| 20260507115513 | 11 | 194 | 8.0 | 24.1 | 0.00 | 0.00 | 0.00 | 50 | 1019.0 |
| 20260507115009 | 11 | 185 | 6.4 | 16.1 | 0.00 | 0.00 | 0.00 | 50 | 1019.0 |
| 20260507114509 | 11 | 197 | 6.4 | 17.7 | 0.00 | 0.00 | 0.00 | 50 | 1018.9 |
| 20260507114007 | 11 | 231 | 6.4 | 17.7 | 0.00 | 0.00 | 0.00 | 50 | 1018.9 |
| 20260507113507 | 11 | 270 | 6.4 | 24.1 | 0.00 | 0.00 | 0.00 | 50 | 1018.9 |
| 20260507113006 | 11 | 222 | 4.8 | 24.1 | 0.00 | 0.00 | 0.00 | 49 | 1018.9 |
| 20260507112506 | 11 | 225 | 8.0 | 20.9 | 0.00 | 0.00 | 0.00 | 50 | 1018.9 |
| 20260507112005 | 11 | 193 | 4.8 | 22.5 | 0.00 | 0.00 | 0.00 | 49 | 1018.7 |
| 20260507111506 | 11 | 262 | 6.4 | 22.5 | 0.00 | 0.00 | 0.00 | 49 | 1018.7 |
| 20260507111105 | 11 | 252 | 6.4 | 17.7 | 0.00 | 0.00 | 0.00 | 49 | 1018.5 |
| 20260507110502 | 11 | 178 | 6.4 | 32.2 | 0.00 | 0.00 | 0.00 | 48 | 1018.5 |
| 20260507110008 | 11 | 296 | 6.4 | 20.9 | 0.00 | 0.00 | 0.00 | 48 | 1018.5 |
| 20260507105609 | 12 | 236 | 6.4 | 22.5 | 0.00 | 0.00 | 0.00 | 48 | 1018.5 |
| 20260507105001 | 12 | 237 | 9.7 | 22.5 | 0.00 | 0.00 | 0.00 | 48 | 1018.4 |
| 20260507104600 | 12 | 243 | 8.0 | 19.3 | 0.00 | 0.00 | 0.00 | 48 | 1018.4 |
| 20260507104100 | 12 | 239 | 6.4 | 22.5 | 0.00 | 0.00 | 0.00 | 47 | 1018.4 |
| 20260507103600 | 12 | 265 | 9.7 | 22.5 | 0.00 | 0.00 | 0.00 | 46 | 1018.3 |
| 20260507103059 | 12 | 266 | 9.7 | 22.5 | 0.00 | 0.00 | 0.00 | 46 | 1018.3 |
| 20260507102558 | 12 | 259 | 8.0 | 22.5 | 0.00 | 0.00 | 0.00 | 47 | 1018.4 |
| 20260507102058 | 12 | 242 | 6.4 | 20.9 | 0.00 | 0.00 | 0.00 | 47 | 1018.4 |
| 20260507101607 | 12 | 290 | 9.7 | 29.0 | 0.00 | 0.00 | 0.00 | 46 | 1018.5 |
| 20260507101056 | 12 | 224 | 8.0 | 29.0 | 0.00 | 0.00 | 0.00 | 46 | 1018.5 |
| 20260507100559 | 12 | 237 | 4.8 | 22.5 | 0.00 | 0.00 | 0.00 | 46 | 1018.4 |
| 20260507100058 | 12 | 239 | 8.0 | 17.7 | 0.00 | 0.00 | 0.00 | 46 | 1018.4 |
| 20260507095558 | 12 | 212 | 6.4 | 16.1 | 0.00 | 0.00 | 0.00 | 46 | 1018.4 |
| 20260507095055 | 12 | 244 | 6.4 | 16.1 | 0.00 | 0.00 | 0.00 | 46 | 1018.3 |
| 20260507094600 | 12 | 294 | 6.4 | 17.7 | 0.00 | 0.00 | 0.00 | 46 | 1018.3 |
| 20260507094057 | 12 | 184 | 6.4 | 20.9 | 0.00 | 0.00 | 0.00 | 46 | 1018.2 |
| 20260507093552 | 12 | 227 | 8.0 | 20.9 | 0.00 | 0.00 | 0.00 | 46 | 1018.0 |
| 20260507093052 | 12 | 211 | 8.0 | 19.3 | 0.00 | 0.00 | 0.00 | 45 | 1017.9 |
| 20260507092551 | 12 | 242 | 6.4 | 22.5 | 0.00 | 0.00 | 0.00 | 44 | 1017.9 |
| 20260507092050 | 12 | 236 | 6.4 | 24.1 | 0.00 | 0.00 | 0.00 | 45 | 1017.8 |
| 20260507091600 | 12 | 274 | 8.0 | 24.1 | 0.00 | 0.00 | 0.00 | 45 | 1017.6 |
| 20260507091049 | 13 | 277 | 9.7 | 29.0 | 0.00 | 0.00 | 0.00 | 45 | 1017.6 |
| 20260507090549 | 13 | 184 | 11.3 | 37.0 | 0.00 | 0.00 | 0.00 | 44 | 1017.6 |
| 20260507090108 | 13 | 250 | 9.7 | 37.0 | 0.00 | 0.00 | 0.00 | 44 | 1017.6 |
| 20260507085549 | 13 | 217 | 14.5 | 37.0 | 0.00 | 0.00 | 0.00 | 45 | 1017.4 |
| 20260507085048 | 13 | 250 | 8.0 | 27.4 | 0.00 | 0.00 | 0.00 | 44 | 1017.4 |
| 20260507084547 | 13 | 257 | 6.4 | 27.4 | 0.00 | 0.00 | 0.00 | 44 | 1017.4 |
| 20260507084046 | 13 | 216 | 6.4 | 27.4 | 0.00 | 0.00 | 0.00 | 44 | 1017.4 |
| 20260507083546 | 13 | 254 | 8.0 | 24.1 | 0.00 | 0.00 | 0.00 | 43 | 1017.3 |
| 20260507083045 | 13 | 223 | 6.4 | 19.3 | 0.00 | 0.00 | 0.00 | 44 | 1017.3 |
| 20260507082547 | 13 | 246 | 4.8 | 20.9 | 0.00 | 0.00 | 0.00 | 43 | 1017.1 |
| 20260507082043 | 13 | 267 | 4.8 | 20.9 | 0.00 | 0.00 | 0.00 | 43 | 1017.0 |
| 20260507081552 | 13 | 205 | 8.0 | 17.7 | 0.00 | 0.00 | 0.00 | 43 | 1016.9 |
| 20260507081041 | 13 | 210 | 4.8 | 11.3 | 0.00 | 0.00 | 0.00 | 43 | 1016.9 |
| 20260507080540 | 13 | 226 | 4.8 | 16.1 | 0.00 | 0.00 | 0.00 | 43 | 1016.7 |
| 20260507080039 | 13 | 229 | 3.2 | 12.9 | 0.00 | 0.00 | 0.00 | 42 | 1016.5 |
| 20260507075541 | 13 | 221 | 3.2 | 19.3 | 0.00 | 0.00 | 0.00 | 43 | 1016.4 |
| 20260507075037 | 13 | 195 | 8.0 | 22.5 | 0.00 | 0.00 | 0.00 | 41 | 1016.2 |
| 20260507074540 | 13 | 198 | 8.0 | 22.5 | 0.00 | 0.00 | 0.00 | 42 | 1016.2 |
| 20260507074035 | 13 | 216 | 8.0 | 20.9 | 0.00 | 0.00 | 0.00 | 41 | 1016.1 |
| 20260507073535 | 13 | 275 | 8.0 | 20.9 | 0.00 | 0.00 | 0.00 | 41 | 1016.0 |
| 20260507073044 | 13 | 227 | 6.4 | 19.3 | 0.00 | 0.00 | 0.00 | 40 | 1016.0 |
| 20260507072534 | 14 | 249 | 6.4 | 24.1 | 0.00 | 0.00 | 0.00 | 41 | 1015.8 |
| 20260507072034 | 14 | 198 | 6.4 | 24.1 | 0.00 | 0.00 | 0.00 | 40 | 1015.7 |
| 20260507071531 | 14 | 213 | 9.7 | 24.1 | 0.00 | 0.00 | 0.00 | 39 | 1015.6 |
| 20260507071031 | 14 | 274 | 8.0 | 24.1 | 0.00 | 0.00 | 0.00 | 39 | 1015.5 |
| 20260507070531 | 15 | 193 | 6.4 | 17.7 | 0.00 | 0.00 | 0.00 | 39 | 1015.5 |
| 20260507070031 | 15 | 300 | 6.4 | 32.2 | 0.00 | 0.00 | 0.00 | 38 | 1015.4 |
| 20260507065534 | 15 | 181 | 11.3 | 32.2 | 0.00 | 0.00 | 0.00 | 37 | 1015.4 |
| 20260507065030 | 15 | 257 | 11.3 | 32.2 | 0.00 | 0.00 | 0.00 | 36 | 1015.3 |
| 20260507064530 | 15 | 216 | 8.0 | 19.3 | 0.00 | 0.00 | 0.00 | 37 | 1015.3 |
| 20260507064029 | 15 | 184 | 9.7 | 22.5 | 0.00 | 0.00 | 0.00 | 36 | 1015.4 |
| 20260507063529 | 15 | 229 | 9.7 | 22.5 | 0.00 | 0.00 | 0.00 | 36 | 1015.2 |
| 20260507063028 | 15 | 267 | 8.0 | 22.5 | 0.00 | 0.00 | 0.00 | 35 | 1015.1 |
| 20260507062528 | 15 | 157 | 6.4 | 24.1 | 0.00 | 0.00 | 0.00 | 36 | 1015.1 |
| 20260507062028 | 16 | 229 | 11.3 | 24.1 | 0.00 | 0.00 | 0.00 | 34 | 1015.0 |
| 20260507061532 | 16 | 212 | 9.7 | 27.4 | 0.00 | 0.00 | 0.00 | 34 | 1014.8 |
| 20260507061025 | 16 | 169 | 8.0 | 27.4 | 0.00 | 0.00 | 0.00 | 33 | 1014.8 |
| 20260507060525 | 16 | 248 | 6.4 | 25.7 | 0.00 | 0.00 | 0.00 | 34 | 1014.7 |
| 20260507060030 | 16 | 215 | 9.7 | 20.9 | 0.00 | 0.00 | 0.00 | 32 | 1014.7 |
| 20260507055525 | 16 | 263 | 8.0 | 27.4 | 0.00 | 0.00 | 0.00 | 32 | 1014.5 |
| 20260507055029 | 16 | 319 | 12.9 | 27.4 | 0.00 | 0.00 | 0.00 | 31 | 1014.4 |